[[{"header":{"parameterUnit":"m.s-1","parameterCategory":1,"la1":30.2991,"la2":30.254,"lo1":-89.0895,"lo2":-89.0444,"dy":0.0017,"dx":0.0017,"nx":28,"ny":28,"refTime":"2024-03-23T09:00:00:Z","depth":0,"parameterNumber":2,"parameterNumberName":"U-component_of_WINDS"},"data":[0,0,0,0,0,0,0,0,0,0,0,0,0,0,0,0,0,0,0,0,0,0,0,0,0,0,0,0,0,0,0,0,0,0,0,0,0,0,0,0,0,0,0,0,0,0,0,0,0,0,0,0,0,0,0,0,0,0,-4.8828,-4.8829,0,-4.8886,-4.8887,-4.8888,-4.8819,-4.8817,-4.8814,-4.8812,-4.8874,-4.8878,-4.8882,0,0,0,0,0,0,0,0,0,0,0,0,0,-4.8661,-4.8664,-4.8828,-4.8829,-4.8829,-4.8886,-4.8887,-4.8888,-4.882,-4.8817,-4.8813,-4.881,-4.8872,-4.8877,-4.8882,0,0,0,0,0,0,0,0,0,0,0,0,0,-4.8728,-4.8666,-4.8828,-4.8802,-4.88,-4.8886,-4.8887,-4.8888,-4.882,-4.8816,-4.8813,-4.8809,-4.8871,-4.8877,-4.8883,-4.8997,0,0,-4.8901,-4.8904,0,0,0,0,0,0,0,0,-4.8724,-4.8734,-4.8805,-4.8804,-4.8802,-4.8841,-4.8851,-4.8925,-4.8821,-4.8813,-4.8812,-4.8807,-4.8866,-4.8872,-4.8892,-4.9,-4.9002,-4.8902,-4.8905,-4.8908,-4.891,0,0,0,0,0,0,0,-4.872,-4.8731,-4.8851,-4.8806,-4.8805,-4.8789,-4.8794,-4.8864,-4.886,-4.8813,-4.8808,-4.8816,-4.8865,-4.8886,-4.8893,-4.9003,-4.8901,-4.8907,-4.8911,-4.8913,-4.9209,-4.9213,0,0,0,0,0,0,-4.8718,-4.8728,-4.8849,-4.8853,-4.8753,-4.8795,-4.8801,-4.8833,-4.8859,-4.886,-4.8819,-4.8813,-4.8878,-4.8886,-4.8895,-4.9029,-4.8908,-4.8913,-4.8917,-4.9205,-4.921,-4.9214,0,0,0,0,0,0,-4.8714,-4.8729,-4.8847,-4.8789,-4.8803,-4.8802,-4.8838,-4.8836,-4.8857,-4.8864,-4.8863,-4.8842,-4.8875,-4.8886,-4.8972,-4.9031,-4.8916,-4.8922,-4.92,-4.9206,-4.9212,-4.93,0,0,0,0,0,0,-4.871,-4.8728,-4.877,-4.8791,-4.8806,-4.8922,-4.8842,-4.884,-4.8868,-4.8859,-4.8885,-4.8885,-4.8873,-4.8963,-4.8978,-4.9037,-4.8926,-4.9194,-4.9203,-4.921,-4.9292,-4.9309,-4.9323,0,0,0,0,0,-4.8704,-4.8793,-4.8773,-4.8788,-4.8859,-4.8925,-4.8935,-4.8918,-4.8873,-4.8915,-4.892,-4.8884,-4.9023,-4.8973,-4.8989,-4.905,-4.9191,-4.92,-4.921,-4.9285,-4.9306,-4.9323,0,0,0,0,0,0,-4.878,-4.8795,-4.8773,-4.8871,-4.8898,-4.8914,-4.8967,-4.894,-4.898,-4.8971,-4.8949,-4.8956,-4.9047,-4.9058,-4.9001,-4.9163,-4.9099,-4.9113,-4.9151,-4.9171,-4.9186,-4.918,-4.8931,0,0,0,0,0,-4.8809,-4.886,-4.8872,-4.8957,-4.8972,-4.8968,-4.8996,-4.8981,-4.9008,-4.9019,-4.9029,-4.9058,-4.9107,-4.914,-4.9187,-4.9295,-4.9299,-4.9346,-4.9361,-4.9374,-4.9385,-4.9443,-4.9463,-4.9246,-4.9246,-4.9245,0,0,-4.8867,-4.8882,-4.8916,-4.8973,-4.8991,-4.9046,-4.8977,-4.9038,-4.9079,-4.9028,-4.9108,-4.9119,-4.9149,-4.9246,-4.929,-4.9258,-4.9446,-4.9386,-4.9396,-4.94,-4.9455,-4.9475,-4.9493,-4.9252,-4.9251,-4.925,0,0,-4.9001,-4.9018,-4.9091,-4.9112,-4.9141,-4.9138,-4.9156,-4.9178,-4.9182,-4.9263,-4.9226,-4.9276,-4.9362,-4.9385,-4.9408,-4.9555,-4.9523,-4.9571,-4.9651,-4.9708,-4.9725,-4.974,-4.9791,-4.981,-4.9582,-4.9583,-4.9583,0,-4.907,-4.915,-4.9132,-4.9196,-4.9222,-4.918,-4.9254,-4.9276,-4.9319,-4.9339,-4.9303,-4.9411,-4.9429,-4.9531,-4.9567,-4.9588,-4.9607,-4.9566,-4.9724,-4.9739,-4.9752,-4.9801,-4.982,-4.9588,-4.9587,-4.9587,-4.9586,0,-4.9233,-4.929,-4.9346,-4.9388,-4.9421,-4.949,-4.9484,-4.952,-4.9504,-4.9506,-4.959,-4.961,-4.9659,-4.9683,-4.9668,-4.9784,-4.9763,-4.9727,-4.9662,-4.9779,-4.9824,-4.9842,-4.9596,-4.9594,-4.9592,-4.9591,0,0,-4.9412,-4.9446,-4.9467,-4.9485,-4.9517,-4.956,-4.9629,-4.9677,-4.9708,-4.9742,-4.9798,-4.9873,-4.984,-4.9866,-4.9854,-4.9905,-5.0018,-4.9861,-4.9862,-4.9888,-5.0147,-5.0172,-5.0194,-5.0,-5.0003,-5.0006,-5.0144,0,-4.9545,-4.9661,-4.9649,-4.976,-4.9812,-4.9775,-4.9834,-4.9861,-4.9865,-4.9911,-4.9917,-4.997,-4.9923,-4.9938,-4.9987,-4.9994,-5.007,-4.9985,-5.0051,-5.0054,-5.0041,-5.0217,-5.0244,-5.0372,-5.0161,-5.0164,-5.0166,0,-4.9714,-4.9752,-4.9869,-4.9893,-4.9914,-4.9968,-5.0011,-5.0056,-5.0087,-5.0087,-5.0118,-5.0097,-5.0167,-5.0104,-5.0201,-5.0143,-5.0171,-5.0179,-5.0184,-5.0186,-5.0114,-5.0222,-5.0413,-5.0431,-5.0194,-5.0192,-5.019,0,-4.983,-4.9912,-4.9992,-5.001,-5.004,-5.0079,-5.0094,-5.012,-5.015,-5.019,-5.0209,-5.0258,-5.0283,-5.0321,-5.0315,-5.027,-5.0413,-5.0349,-5.0414,-5.0415,-5.0443,-5.044,-5.0638,-5.0466,-5.0466,-5.0466,-5.0465,0,-4.9978,-5.005,-5.0044,-5.0093,-5.0173,-5.016,-5.024,-5.0251,-5.0275,-5.0326,-5.0299,-5.0348,-5.0338,-5.0387,-5.0384,-5.0464,-5.0476,-5.0478,-5.0475,-5.0479,-5.0478,-5.0493,-5.0483,-5.0471,-5.047,-5.0469,-5.0468,0,-5.0119,-5.0118,-5.0203,-5.0226,-5.0234,-5.0292,-5.0312,-5.0359,-5.0363,-5.0428,-5.0442,-5.0449,-5.0505,-5.0504,-5.0569,-5.0567,-5.0664,-5.0653,-5.0653,-5.065,-5.0714,-5.0707,-5.0925,-5.0953,-5.0766,-5.0768,-5.077,0,-5.0211,-5.0265,-5.0295,-5.0327,-5.0344,-5.0396,-5.0427,-5.0418,-5.0452,-5.0492,-5.0534,-5.0589,-5.0631,-5.0724,-5.0735,-5.0785,-5.0773,-5.0846,-5.078,-5.0782,-5.0771,-5.0767,-5.0772,-5.0858,-5.086,-5.0862,-5.0863,0,-5.0374,-5.0372,-5.0417,-5.0463,-5.0501,-5.0537,-5.057,-5.0598,-5.0593,-5.0633,-5.069,-5.0723,-5.079,-5.0844,-5.0893,-5.091,-5.0886,-5.0885,-5.0902,-5.0903,-5.09,-5.0901,-5.0685,-5.0879,-5.0877,-5.0876,-5.0875,-5.0874,-5.0492,-5.0538,-5.0566,-5.0618,-5.0643,-5.0675,-5.072,-5.073,-5.0778,-5.083,-5.0823,-5.0888,-5.0919,-5.0982,-5.1003,-5.1054,-5.1028,-5.1054,-5.106,-5.1065,-5.1071,-5.0896,-5.1064,-5.1063,-5.1063,-5.1062,-5.1062,0,-5.0651,-5.0668,-5.0716,-5.0763,-5.0805,-5.078,-5.0816,-5.0852,-5.0909,-5.094,-5.0983,-5.105,-5.1104,-5.112,-5.1172,-5.121,-5.12,-5.1224,-5.1219,-5.1223,-5.1092,-5.1071,-5.123,-5.123,-5.123,-5.123,-5.123,-5.123,-5.0738,-5.0816,-5.0818,-5.0908,-5.0925,-5.0987,-5.1009,-5.104,-5.1064,-5.114,-5.1184,-5.1195,-5.122,-5.1275,-5.1323,-5.1327,-5.1346,-5.1373,-5.1373,-5.1249,-5.1232,-5.1216,-5.1196,-5.1378,-5.1379,-5.1498,-5.1499,-5.15]},{"header":{"parameterUnit":"m.s-1","parameterCategory":1,"la1":30.2991,"la2":30.254,"lo1":-89.0895,"lo2":-89.0444,"dy":0.0017,"dx":0.0017,"nx":28,"ny":28,"refTime":"2024-03-23T09:00:00:Z","depth":0,"parameterNumber":3,"parameterNumberName":"V-component_of_WINDS"},"data":[0,0,0,0,0,0,0,0,0,0,0,0,0,0,0,0,0,0,0,0,0,0,0,0,0,0,0,0,0,0,0,0,0,0,0,0,0,0,0,0,0,0,0,0,0,0,0,0,0,0,0,0,0,0,0,0,0,0,3.1443,3.1443,0,3.1469,3.1469,3.1469,3.1516,3.1517,3.1518,3.1519,3.154,3.154,3.154,0,0,0,0,0,0,0,0,0,0,0,0,0,3.143,3.143,3.1443,3.1443,3.1443,3.1468,3.1469,3.1469,3.1516,3.1517,3.1518,3.1519,3.154,3.154,3.154,0,0,0,0,0,0,0,0,0,0,0,0,0,3.1444,3.143,3.1443,3.147,3.1473,3.1468,3.1469,3.1469,3.1516,3.1517,3.1519,3.152,3.154,3.154,3.1539,3.1509,0,0,3.1538,3.1538,0,0,0,0,0,0,0,0,3.1443,3.1444,3.1465,3.1468,3.1471,3.1491,3.1472,3.1482,3.1515,3.1499,3.1519,3.1521,3.1522,3.1523,3.1525,3.151,3.1511,3.1538,3.1538,3.1538,3.1538,0,0,0,0,0,0,0,3.1442,3.1443,3.1453,3.1466,3.1469,3.148,3.1483,3.1474,3.1502,3.1501,3.1504,3.1507,3.1524,3.1525,3.1526,3.1511,3.1538,3.1538,3.1537,3.1537,3.1474,3.1473,0,0,0,0,0,0,3.1437,3.1442,3.1452,3.1453,3.146,3.1479,3.1483,3.1483,3.1503,3.1507,3.1506,3.1509,3.1525,3.1526,3.1527,3.1494,3.1538,3.1537,3.1537,3.1476,3.1474,3.1473,0,0,0,0,0,0,3.1437,3.1438,3.1451,3.1449,3.1451,3.1478,3.1477,3.1483,3.1484,3.1507,3.1511,3.1502,3.1527,3.1527,3.1514,3.1495,3.1537,3.1537,3.1478,3.1475,3.1473,3.1426,0,0,0,0,0,0,3.1436,3.1437,3.1427,3.1448,3.1451,3.1438,3.1476,3.1482,3.1484,3.1488,3.1505,3.1509,3.1528,3.1514,3.1513,3.1495,3.1536,3.1479,3.1477,3.1474,3.1429,3.1423,3.1417,0,0,0,0,0,3.1436,3.1411,3.1426,3.1427,3.1439,3.1437,3.1439,3.1463,3.1482,3.1471,3.1486,3.1508,3.1497,3.1513,3.1512,3.1493,3.1481,3.1477,3.1474,3.1432,3.1424,3.1417,0,0,0,0,0,0,3.1384,3.1414,3.1431,3.1413,3.1423,3.1445,3.1432,3.1453,3.1456,3.146,3.1488,3.1491,3.1474,3.1482,3.1499,3.1466,3.1492,3.1489,3.1461,3.1453,3.1447,3.1445,3.1536,0,0,0,0,0,3.1371,3.1369,3.1395,3.1376,3.138,3.1405,3.1405,3.1424,3.1434,3.1437,3.1451,3.1459,3.1458,3.1456,3.1456,3.1431,3.1435,3.1418,3.1412,3.1406,3.1403,3.1391,3.1384,3.1462,3.1462,3.1462,0,0,3.1343,3.1359,3.1356,3.1366,3.1376,3.1372,3.1408,3.1402,3.1399,3.1436,3.1425,3.1435,3.1446,3.1427,3.1419,3.1433,3.1382,3.1402,3.1398,3.1397,3.1387,3.138,3.1373,3.146,3.146,3.1461,0,0,3.1291,3.1303,3.1289,3.1299,3.1314,3.1331,3.1328,3.1348,3.1357,3.1347,3.1375,3.1371,3.1368,3.1375,3.1378,3.133,3.135,3.1329,3.1295,3.1284,3.1278,3.1272,3.1255,3.1249,3.1325,3.1325,3.1325,0,3.1254,3.125,3.1279,3.1272,3.1276,3.1311,3.1297,3.1305,3.1318,3.1319,3.1335,3.1333,3.1343,3.1327,3.1315,3.1316,3.1313,3.1327,3.1277,3.1271,3.1267,3.1251,3.1245,3.1323,3.1323,3.1323,3.1323,0,3.1204,3.1201,3.1188,3.1203,3.1205,3.1194,3.1221,3.1219,3.1238,3.1253,3.1242,3.1256,3.1259,3.1257,3.1274,3.1243,3.1252,3.1272,3.1299,3.1256,3.1242,3.1236,3.1319,3.132,3.1321,3.1321,0,0,3.1118,3.1151,3.1145,3.1153,3.1173,3.117,3.1162,3.1167,3.1166,3.1174,3.1167,3.1165,3.1184,3.1187,3.1205,3.1195,3.1157,3.1217,3.1217,3.1205,3.1125,3.111,3.1102,3.1171,3.117,3.117,3.1124,0,3.1069,3.1058,3.1084,3.1065,3.1063,3.1098,3.109,3.1101,3.1116,3.1115,3.1131,3.1129,3.1154,3.1157,3.1148,3.1164,3.1141,3.1167,3.1164,3.1164,3.116,3.1095,3.1078,3.1035,3.1119,3.1118,3.1117,0,3.1011,3.1019,3.1,3.1023,3.1023,3.1016,3.1024,3.1023,3.1036,3.1048,3.1053,3.1075,3.1067,3.1094,3.1084,3.1101,3.1101,3.1109,3.1108,3.1108,3.1137,3.1093,3.1022,3.1015,3.1109,3.1109,3.111,0,3.095,3.0956,3.0946,3.0952,3.0978,3.0972,3.0982,3.0997,3.0999,3.1006,3.1008,3.1013,3.1015,3.1018,3.1041,3.1059,3.1027,3.1056,3.1036,3.1035,3.1027,3.1027,3.0954,3.1027,3.1028,3.1028,3.1028,0,3.0893,3.088,3.092,3.0913,3.09,3.0931,3.0917,3.093,3.0944,3.094,3.097,3.0966,3.0996,3.0995,3.1013,3.1001,3.1002,3.101,3.1015,3.1008,3.1006,3.1008,3.1011,3.1026,3.1026,3.1027,3.1027,0,3.0823,3.0849,3.0841,3.0867,3.0873,3.0862,3.0884,3.0879,3.0897,3.0892,3.0892,3.0919,3.0919,3.0943,3.0947,3.0959,3.094,3.095,3.0936,3.094,3.0918,3.0919,3.0843,3.0835,3.0913,3.0912,3.0912,0,3.0785,3.0776,3.0802,3.0803,3.0813,3.0813,3.0817,3.0846,3.0848,3.0864,3.0857,3.086,3.0864,3.0863,3.0882,3.0886,3.0896,3.0869,3.0897,3.089,3.0896,3.0896,3.0896,3.0863,3.0862,3.0861,3.0861,0,3.0714,3.0728,3.0732,3.0741,3.0745,3.0753,3.0763,3.0762,3.0794,3.0795,3.0797,3.08,3.0807,3.0809,3.0817,3.0827,3.0849,3.0852,3.0848,3.084,3.0832,3.0836,3.092,3.0853,3.0854,3.0855,3.0855,3.0855,3.0659,3.0653,3.0672,3.0676,3.0687,3.0696,3.0693,3.0711,3.0714,3.0722,3.074,3.0739,3.0753,3.0766,3.0774,3.0773,3.0787,3.078,3.0778,3.0776,3.0772,3.0833,3.0775,3.0775,3.0775,3.0775,3.0776,0,3.059,3.0604,3.0608,3.0622,3.0625,3.0648,3.0661,3.0661,3.0661,3.0674,3.0678,3.0681,3.0684,3.0704,3.0709,3.0705,3.0715,3.0705,3.0706,3.0708,3.076,3.0763,3.0697,3.0697,3.0697,3.0697,3.0697,3.0697,3.0555,3.0547,3.0563,3.0561,3.0575,3.0576,3.0582,3.059,3.06,3.0602,3.0606,3.062,3.0635,3.0642,3.0646,3.0652,3.0653,3.0639,3.0648,3.0696,3.0704,3.0711,3.0714,3.0639,3.0639,3.0596,3.0596,3.0596]}]]